Location: Franzen
(48.6167°N, 15.3833°E)
Time: 21:34:46
(UTC+00:00)

Cosmos 1709 Rocket - Pass Details

Date: 29 July 2021
Orbit: 947 x 1002 km, 82.9° (Epoch: 22 September)

Event Time Altitude Azimuth Distance (km) Brightness Sun altitude
Exits shadow 01:19:38 13° 257° (WSW) 2,539 5.8 -16.3°
Maximum altitude 01:23:24 21° 298° (WNW) 2,077 5.7 -15.9°
Drops below altitude 10° 01:28:06 10° 346° (NNW) 2,783 7.0 -15.5°
Sets 01:31:23 0° 2° (N) 3,741 8.0 -15.2°
